Le nostre stazioni meteo in Italia

Pubblicità
Il mio iltempo24.it
East malling, Gran Bretagna (99008): Temperatura & dewpoint: 15.01.2020 23:00:00 - 21.01.2020 23:00:00 (GMT)East malling, Gran Bretagna (99008): Temperatura -20cm: 15.01.2020 23:00:00 - 21.01.2020 23:00:00 (GMT)East malling, Gran Bretagna (99008): velocità del vento & gusts: 15.01.2020 23:00:00 - 21.01.2020 23:00:00 (GMT)East malling, Gran Bretagna (99008): direzione del vento: 15.01.2020 23:00:00 - 21.01.2020 23:00:00 (GMT)East malling, Gran Bretagna (99008): reduced air pressure: 15.01.2020 23:00:00 - 21.01.2020 23:00:00 (GMT)East malling, Gran Bretagna (99008): ore di luce: 15.01.2020 23:00:00 - 21.01.2020 23:00:00 (GMT)East malling, Gran Bretagna (99008): precipitazioni: 15.01.2020 23:00:00 - 21.01.2020 23:00:00 (GMT)
Data & Tempo tt [°C] td [°C] tt -20cm [°C] ff [km/h] ff [kn] fx [km/h] fx [kn] dd ppp [hPa] sd [min] rr [mm]
21.01.2020 23:00:00 - - - - - - - - - - -
21.01.2020 22:00:00 -1,3 -1,3 - 0 0 - - N 1039,7 0 0,0
21.01.2020 21:00:00 -0,6 -0,6 - 2 1 - - SSO 1039,9 0 0,0
21.01.2020 20:00:00 0,2 0,2 - 2 1 - - SE 1040,0 0 0,0
21.01.2020 19:00:00 0,3 0,1 - 2 1 - - SSO 1040,1 0 0,0
21.01.2020 18:00:00 1,7 1,1 - 2 1 - - O 1040,4 0 0,0
21.01.2020 17:00:00 3,4 1,4 - 8 4 - - SSO 1040,3 30 0,0
21.01.2020 16:00:00 6,3 2,1 - 5 3 - - SSO 1040,4 60 0,0
21.01.2020 15:00:00 7,7 2,8 - 5 3 - - O 1040,6 60 0,0
21.01.2020 14:00:00 7,3 2,9 - 8 4 - - SSO 1040,9 60 0,0
21.01.2020 13:00:00 7,1 3,1 - 5 3 - - ONO 1041,7 60 0,0
21.01.2020 12:00:00 5,7 3,4 - 2 1 - - NNO 1042,4 60 0,0
21.01.2020 11:00:00 3,1 2,8 - 0 0 - - N 1043,1 60 0,2
21.01.2020 10:00:00 1,1 1,1 - 2 1 - - N 1043,2 60 0,0
21.01.2020 09:00:00 -1,8 -1,8 3,5 0 0 - - N - 54 0,0
21.01.2020 08:00:00 -3,3 -3,3 - 2 1 - - SSE 1042,6 0 0,0
21.01.2020 07:00:00 -3,3 -3,3 - 2 1 - - SO 1042,8 0 0,0
21.01.2020 06:00:00 -3,2 -3,2 - 2 1 - - O 1043,1 0 0,0
21.01.2020 05:00:00 -3,1 -3,1 - 2 1 - - SE 1042,9 0 0,0
21.01.2020 04:00:00 -2,5 -2,5 - 4 2 - - S 1043,2 0 0,0
21.01.2020 03:00:00 -2,3 -2,3 - 4 2 - - SE 1043,5 0 0,0
21.01.2020 02:00:00 -2,7 -2,7 - 5 3 - - N 1044,1 0 0,0
21.01.2020 01:00:00 -2,3 -2,3 - 2 1 - - OSO 1044,6 0 0,0
21.01.2020 00:00:00 -1,8 -1,8 - 2 1 - - SE 1045,2 - 0,0
20.01.2020 23:00:00 -0,9 -0,9 - 2 1 - - ONO 1045,3 0 0,0
20.01.2020 22:00:00 -0,9 -0,9 - 2 1 - - N 1045,5 0 0,0
20.01.2020 21:00:00 -0,4 -0,5 - 4 2 - - S 1045,5 0 0,0
20.01.2020 20:00:00 -0,1 -0,7 - 4 2 - - SSE 1046,2 0 0,0
20.01.2020 19:00:00 0,5 -0,3 - 8 4 - - S 1046,0 0 0,0
20.01.2020 18:00:00 0,6 -1,4 - 4 2 - - SSO 1046,3 0 0,0
20.01.2020 17:00:00 2,8 -0,6 - 5 3 - - SO 1046,5 24 0,0
20.01.2020 16:00:00 6,4 -0,2 - 2 1 - - O 1046,8 42 0,0
20.01.2020 15:00:00 6,0 -0,2 - 5 3 - - SO 1047,1 0 0,0
20.01.2020 14:00:00 6,7 -1,0 - 5 3 - - SO 1047,5 0 0,0
20.01.2020 13:00:00 5,9 0,6 - 2 1 - - SO 1048,2 0 0,0
20.01.2020 12:00:00 5,6 -0,8 - 8 4 - - SO 1048,6 30 0,0
20.01.2020 11:00:00 4,9 -0,1 - 8 4 - - SSO 1049,1 54 0,0
20.01.2020 10:00:00 1,8 1,8 - 4 2 - - S 1049,2 48 0,0
20.01.2020 09:00:00 -0,3 -0,3 4,2 2 1 - - SO 1049,1 30 0,0
20.01.2020 08:00:00 -0,4 -0,4 - 0 0 - - N 1049,1 0 0,0
20.01.2020 07:00:00 -0,5 -0,5 - 2 1 - - E 1048,9 0 0,0
20.01.2020 06:00:00 -1,4 -1,4 - 2 1 - - SO 1049,0 0 0,0
20.01.2020 05:00:00 -1,9 -1,9 - 2 1 - - S 1048,9 0 0,0
20.01.2020 04:00:00 -1,2 -1,2 - 5 3 - - S 1049,1 0 0,0
20.01.2020 03:00:00 -0,6 -0,6 - 0 0 - - N 1049,0 0 0,0
20.01.2020 02:00:00 0,5 0,5 - 4 2 - - N 1048,9 0 0,0
20.01.2020 01:00:00 0,8 0,8 - 4 2 - - SSO 1049,0 0 0,0
20.01.2020 00:00:00 0,8 0,8 - 4 2 - - SO 1049,4 - 0,0
19.01.2020 23:00:00 0,0 0,0 - 2 1 - - SO 1049,6 0 0,0
19.01.2020 22:00:00 -0,5 -0,9 - 4 2 - - NO 1049,2 0 0,0
19.01.2020 21:00:00 0,9 0,9 - 4 2 - - O 1049,0 0 0,0
19.01.2020 20:00:00 0,6 0,0 - 4 2 - - SO 1048,5 0 0,0
19.01.2020 19:00:00 1,9 1,0 - 4 2 - - N 1048,1 0 0,0
19.01.2020 18:00:00 3,2 1,3 - 8 4 - - NE 1047,7 0 0,0
19.01.2020 17:00:00 4,6 1,8 - 8 4 - - N 1047,0 30 0,0
19.01.2020 16:00:00 6,2 2,3 - 13 7 - - N 1046,7 60 0,0
19.01.2020 15:00:00 6,9 2,4 - 15 8 - - N 1045,8 60 0,0
19.01.2020 14:00:00 6,8 2,2 - 13 7 - - N 1045,2 60 0,0
19.01.2020 13:00:00 6,7 2,0 - 16 9 - - NNO 1045,2 60 0,0
19.01.2020 12:00:00 6,2 1,8 - 11 6 - - N 1044,9 60 0,0
19.01.2020 11:00:00 5,2 0,7 - 9 5 - - N 1044,8 60 0,0
19.01.2020 10:00:00 4,5 0,4 - 2 1 - - N 1044,4 60 0,0
19.01.2020 09:00:00 1,9 -0,5 4,7 4 2 - - NO 1043,4 36 0,0
19.01.2020 08:00:00 1,3 -0,9 - 8 4 - - NNO 1042,5 0 0,0
19.01.2020 07:00:00 1,2 -0,6 - 5 3 - - N 1041,2 0 0,0
19.01.2020 06:00:00 1,1 -0,6 - 4 2 - - N 1040,1 0 0,0
19.01.2020 05:00:00 1,0 -0,6 - 4 2 - - N 1039,4 0 0,0
19.01.2020 04:00:00 1,5 -0,4 - 5 3 - - N 1038,8 0 0,0
19.01.2020 03:00:00 2,3 0,1 - 8 4 - - N 1038,3 0 0,0
19.01.2020 02:00:00 3,0 0,7 - 13 7 - - N 1037,5 0 0,0
19.01.2020 01:00:00 2,9 0,7 - 15 8 - - N 1036,4 0 0,0
19.01.2020 00:00:00 2,7 0,8 - 9 5 - - NNO 1035,5 - 0,0
18.01.2020 23:00:00 2,8 0,6 - 9 5 - - NO 1034,8 0 0,0
18.01.2020 22:00:00 2,6 0,3 - 8 4 - - NO 1034,1 0 0,0
18.01.2020 21:00:00 2,9 0,3 - 8 4 - - ONO 1033,5 0 0,0
18.01.2020 20:00:00 3,4 0,5 - 9 5 - - NO 1033,1 0 0,0
18.01.2020 19:00:00 2,4 -0,1 - 2 1 - - NO 1032,2 0 0,0
18.01.2020 18:00:00 3,6 0,2 - 8 4 - - NNO 1031,7 0 0,0
18.01.2020 17:00:00 4,5 0,5 - 8 4 - - ONO 1030,7 6 0,0
18.01.2020 16:00:00 5,7 0,4 - 11 6 - - NO 1029,9 42 0,0
18.01.2020 15:00:00 6,8 0,9 - 13 7 - - NO 1029,2 54 0,0
18.01.2020 14:00:00 7,2 1,4 - 15 8 - - NO 1028,5 60 0,0
18.01.2020 13:00:00 6,7 1,4 - 13 7 - - NO 1028,2 60 0,0
18.01.2020 12:00:00 6,5 1,6 - 11 6 - - NO 1028,0 60 0,0
18.01.2020 11:00:00 5,8 1,5 - 11 6 - - NO 1027,8 60 0,2
18.01.2020 10:00:00 4,4 1,1 - 9 5 - - NO 1027,2 60 0,0
18.01.2020 09:00:00 1,2 0,8 6,0 2 1 - - NE 1026,7 48 0,0
18.01.2020 08:00:00 1,8 1,4 - 9 5 - - O 1026,0 0 0,0
18.01.2020 07:00:00 0,2 0,1 - 8 4 - - OSO 1025,2 0 0,0
18.01.2020 06:00:00 0,7 0,2 - 9 5 - - SO 1024,3 0 0,0
18.01.2020 05:00:00 2,2 0,8 - 4 2 - - O 1023,5 0 0,0
18.01.2020 04:00:00 3,0 1,4 - 11 6 - - ONO 1023,1 0 0,0
18.01.2020 03:00:00 3,6 1,6 - 13 7 - - O 1022,6 0 0,0
18.01.2020 02:00:00 3,4 1,4 - 13 7 - - O 1021,7 0 0,0
18.01.2020 01:00:00 3,4 1,5 - 15 8 - - O 1021,1 0 0,0
18.01.2020 00:00:00 1,8 0,9 - 4 2 - - OSO 1020,4 - 0,0
17.01.2020 23:00:00 2,2 1,7 - 5 3 - - OSO 1019,8 0 0,0
17.01.2020 22:00:00 1,5 0,6 - 5 3 - - OSO 1019,2 0 0,0
17.01.2020 21:00:00 2,7 1,2 - 2 1 - - OSO 1018,8 0 0,0
17.01.2020 20:00:00 3,5 1,8 - 9 5 - - SSO 1018,4 0 0,0
17.01.2020 19:00:00 3,6 1,2 - 5 3 - - S 1018,1 0 0,0
17.01.2020 18:00:00 5,2 1,7 - 13 7 - - SO 1017,7 0 0,0
17.01.2020 17:00:00 5,8 1,1 - 9 5 - - SO 1016,9 18 0,0
17.01.2020 16:00:00 7,3 1,4 - 16 9 - - O 1015,9 18 0,0
17.01.2020 15:00:00 7,5 1,4 - 22 12 46 25 O 1014,9 12 0,0
17.01.2020 14:00:00 7,7 1,8 - 28 15 54 29 O 1013,2 6 0,0
17.01.2020 13:00:00 8,4 2,5 - 31 17 65 35 O 1012,1 24 0,0
17.01.2020 12:00:00 9,3 4,5 - 29 16 48 26 OSO 1010,9 24 0,0
17.01.2020 11:00:00 9,8 6,0 - 24 13 - - SO 1010,7 24 0,0
17.01.2020 10:00:00 9,5 7,2 - 21 11 - - SSO 1010,2 24 0,0
17.01.2020 09:00:00 8,0 7,8 8,0 13 7 - - SSO 1010,2 6 0,0
17.01.2020 08:00:00 7,9 7,1 - 13 7 - - SO 1010,1 0 0,8
17.01.2020 07:00:00 8,9 8,0 - 26 14 46 25 OSO 1009,8 0 1,2
17.01.2020 06:00:00 9,7 9,6 - 18 10 - - SSO 1009,5 0 0,2
17.01.2020 05:00:00 9,9 9,9 - 13 7 - - SSO 1009,4 0 0,8
17.01.2020 04:00:00 9,9 9,9 - 15 8 - - SSO 1009,6 0 0,2
17.01.2020 03:00:00 9,9 9,9 - 13 7 - - SSO 1010,0 0 0,4
17.01.2020 02:00:00 9,8 9,8 - 15 8 - - SSO 1010,6 0 0,6
17.01.2020 01:00:00 10,0 10,0 - 13 7 - - S 1010,6 0 1,8
17.01.2020 00:00:00 10,2 9,9 - 16 9 - - SSO 1011,2 - 2,0
16.01.2020 23:00:00 10,5 9,5 - 18 10 - - SSO 1011,1 0 0,6
16.01.2020 22:00:00 10,7 9,4 - 21 11 - - SSO 1011,2 0 1,0
16.01.2020 21:00:00 11,3 8,3 - 21 11 - - SSO 1011,4 0 0,2
16.01.2020 20:00:00 12,3 7,3 - 28 15 46 25 SSO 1011,2 0 0,0
16.01.2020 19:00:00 12,1 7,4 - 21 11 - - S 1011,7 0 0,0
16.01.2020 18:00:00 11,8 7,4 - 21 11 - - S 1012,1 0 0,0
16.01.2020 17:00:00 11,9 7,2 - 22 12 - - S 1012,4 0 0,0
16.01.2020 16:00:00 11,5 7,0 - 26 14 48 26 S 1012,5 0 0,0
16.01.2020 15:00:00 11,2 7,2 - 22 12 - - S 1012,8 0 0,0
16.01.2020 14:00:00 10,4 7,3 - 16 9 - - S 1013,9 6 0,0
16.01.2020 13:00:00 9,8 7,1 - 26 14 - - S 1015,0 18 0,0
16.01.2020 12:00:00 9,0 6,9 - 22 12 - - S 1016,3 30 0,0
16.01.2020 11:00:00 8,6 6,3 - 16 9 48 26 S 1017,8 6 0,0
16.01.2020 10:00:00 8,6 7,4 - 16 9 - - S 1018,4 0 0,0
16.01.2020 09:00:00 7,6 6,8 7,2 15 8 - - S 1018,6 54 0,0
16.01.2020 08:00:00 7,0 6,5 - 15 8 - - S 1019,1 0 0,0
16.01.2020 07:00:00 6,8 6,7 - 13 7 - - SSE 1019,3 0 0,0
16.01.2020 06:00:00 6,6 6,3 - 9 5 - - S 1020,0 0 0,0
16.01.2020 05:00:00 6,7 6,7 - 13 7 - - S 1020,4 0 0,0
16.01.2020 04:00:00 6,0 5,5 - 9 5 - - S 1020,6 0 0,0
16.01.2020 03:00:00 5,8 5,0 - 11 6 - - S 1020,8 0 0,0
16.01.2020 02:00:00 6,2 5,1 - 11 6 - - SSE 1020,7 0 0,0
16.01.2020 01:00:00 6,2 5,6 - 9 5 - - S 1020,2 0 0,0
16.01.2020 00:00:00 6,2 4,8 - 11 6 - - S 1019,7 - 0,0
15.01.2020 23:00:00 6,2 4,5 - 13 7 - - S 1019,5 0 0,0

tt = Temperatura
td = dewpoint
tt -20cm = Temperatura -20cm
ff = velocità del vento
fx = gusts
dd = direzione del vento
ppp = reduced air pressure
sd = ore di luce
rr = precipitazioni

Stazioni seguenti

WeatherPro
AMSI
MeteoEarth